Regional Weather Roundup
Issued by NWS

Home | Current Version | Previous Version | Text Only | Print | Product List | Glossary On
Versions: 1 2 3 4 5 6 7 8 9 10 11 12 13 14 15 16 17 18 19 20 21 22 23 24 25 26 27 28 29 30 31 32 33 34 35 36 37 38 39 40 41 42 43 44 45 46 47 48 49 50
000
ASUS44 KFWD 182015
RWRTX
NORTH TEXAS HOURLY WEATHER ROUNDUP
NATIONAL WEATHER SERVICE FORT WORTH TX
200 PM CST THU DEC 18 2014

NOTE: "FAIR" INDICATES FEW OR NO CLOUDS BELOW 12,000 FEET WITH NO
SIGNIFICANT WEATHER AND/OR OBSTRUCTIONS TO VISIBILITY.

TXZ118-119-182100-
DALLAS/FORT WORTH METROPLEX

CITY           SKY/WX    TMP DP  RH WIND       PRES   REMARKS
DFW AIRPORT    CLOUDY    49  44  83 NE5       30.10F
DALLAS LOVE    CLOUDY    49  45  86 CALM      30.10F FOG
FTW MEACHAM    CLOUDY    50  45  83 NE7       30.10F
DAL-EXECUTIVE  CLOUDY    48  45  89 CALM      30.09F FOG
FTW-ALLIANCE   CLOUDY    49  44  83 N3        30.11F
FTW-SPINKS     CLOUDY    48  46  93 NE5       30.12F FOG
ARLINGTON      CLOUDY    51  43  74 N6        30.10F
GRAND PRAIRIE  CLOUDY    48  46  93 N3        30.12F
ADDISON        CLOUDY    48  45  87 CALM      30.12F FOG
MESQUITE       CLOUDY    46  45  93 CALM      30.12F FOG
LANCASTER      CLOUDY    48  45  90 CALM      30.12F FOG
$$

TXZ091>094-102>105-117-120-121-131>134-182100-
NORTH CENTRAL TEXAS

CITY           SKY/WX    TMP DP  RH WIND       PRES   REMARKS
SHRMAN/DENISON CLOUDY    45  44  99 CALM      30.13F FOG
GAINESVILLE    CLOUDY    46  43  90 E3        30.12F
BOWIE          CLOUDY    49  46  87 CALM      30.09F
BRIDGEPORT     CLOUDY    51  51 100 CALM      30.13S
DECATUR        CLOUDY    49  44  85 CALM      30.10F
DENTON         CLOUDY    49  44  83 N3        30.11F
MCKINNEY       CLOUDY    47  44  90 NE5       30.12F
GREENVILLE     CLOUDY    46  43  87 CALM      30.13F FOG
ROCKWALL       CLOUDY    47  45  95 CALM      30.12S
TERRELL        CLOUDY    50  46  86 NE3       30.12F FOG
WAXAHACHIE     CLOUDY    48  48  97 NW5       30.12F
CLEBURNE       CLOUDY    50  48  93 CALM      30.11F
GRANBURY       CLOUDY    53  47  81 CALM      30.11F
$$

TXZ083>090-098>101-113>116-127>130-139>142-154-155-182100-
WESTERN NORTH TEXAS

CITY           SKY/WX    TMP DP  RH WIND       PRES   REMARKS
WICHITA FALLS  CLOUDY    45  43  93 N9        30.10F FOG
WF-KICKAPOO    CLOUDY    47  45  91 NW5       30.11F
VERNON         CLOUDY    45  39  78 N6        30.13F
ABILENE        SUNNY     65  35  33 N6        30.07F
ABILENE-DYESS  SUNNY     62  33  33 N8        30.06F
BRECKENRIDGE   MOSUNNY   58  44  60 N6        30.08F HAZE
GRAHAM         CLOUDY    53  47  81 NW5       30.07F
MINERAL WELLS  CLOUDY    51  45  79 CALM      30.08F
STEPHENVILLE   SUNNY     59  50  73 E8        30.09F
COMANCHE       MOSUNNY   63  48  58 NE3       30.06F
BROWNWOOD      MOSUNNY   64  45  48 NW5       30.06S
COLEMAN        MOSUNNY   65  42  43 CALM      30.06F
BRADY          SUNNY     68  41  37 W6        30.05F
$$

TXZ143>147-156>162-174-175-182100-
CENTRAL TEXAS

CITY           SKY/WX    TMP DP  RH WIND       PRES   REMARKS
WACO           CLOUDY    52  48  86 N9        30.09F
WACO-TSTC      CLOUDY    54  50  87 NW7       30.10F FOG
WACO-MCGREGOR  CLOUDY    54  46  76 N8        30.10F
HILLSBORO      CLOUDY    50  48  91 N6        30.10F
CORSICANA      CLOUDY    51  48  89 N7        30.11F FOG
MEXIA          CLOUDY    51  50  97 N5        30.09F FOG
HEARNE         CLOUDY    55  54  94 CALM      30.09F FOG
CAMERON        CLOUDY    55  53  94 N6        30.08F FOG
TEMPLE         CLOUDY    55  48  76 N6        30.07F
KILLEEN        MOSUNNY   61  54  77 VRB3      30.06F
KILLEEN-SKYLRK PTSUNNY   59  48  67 CALM      30.04F
FORT HOOD      MOSUNNY   59  52  77 VRB7      30.05F
GATESVILLE     MOSUNNY   55  52  88 CALM      30.09F
HAMILTON       MOSUNNY   65  49  55 CALM      30.07F
LAMPASAS       SUNNY     63  52  66 NW6       30.03F
$$

TXZ095>097-106>112-122>126-135>138-148>153-164>167-182100-
EAST TEXAS

CITY           SKY/WX    TMP DP  RH WIND       PRES   REMARKS
PARIS          CLOUDY    45  41  87 NE6       30.14F
SULPHUR SPRNGS CLOUDY    46  44  95 E5        30.15F FOG
MOUNT PLEASANT CLOUDY    47  45  93 CALM      30.15S
MINEOLA        CLOUDY    46  46 100 CALM      30.13F FOG
TYLER          CLOUDY    50  47  89 NE3       30.11F FOG
LONGVIEW       CLOUDY    51  46  83 E5        30.11F
MARSHALL       CLOUDY    53  49  86 CALM      30.14F
ATHENS         CLOUDY    48  46  93 NE3       30.10F FOG
PALESTINE      CLOUDY    52  51  95 N3        30.11F FOG
JACKSONVILLE   CLOUDY    51  49  93 N3        30.11F FOG
HENDERSON      CLOUDY    51  48  91 N5        30.12F
NACOGDOCHES    CLOUDY    54  48  82 CALM      30.10F
LUFKIN         CLOUDY    60  50  69 N5        30.09F
$$

SUPPLEMENTAL OBSERVATIONS (CENTRAL)

CITY           SKY/WX    TMP DP  RH WIND       PRES   REMARKS
LAKE TEXOMA      N/A     45  41  87 E1          N/A
CADDO GRASSLND   N/A     45  39  81 NE5         N/A
PAT MAYSE LAKE   N/A     43  41  93 VRB5        N/A
GREENVILLE       N/A     45  39  81 NE6         N/A
ATHENS           N/A     50  46  87 N2          N/A
PALESTINE        N/A     52  48  87 NE5         N/A
LAKE LIMESTONE   N/A     55  50  82 NE3         N/A
MCGREGOR         N/A     55  50  82 N3          N/A
TEMPLE           N/A     55  52  88 NW1         N/A
$$

SUPPLEMENTAL OBSERVATIONS (WEST)

CITY           SKY/WX    TMP DP  RH WIND       PRES   REMARKS
POSSUM KINGDOM   N/A     55  48  76 NE5         N/A
LBJ GRASSLAND    N/A     52  43  71 SW2         N/A
GRANBURY         N/A     54  46  76 N2          N/A
COMANCHE         N/A     64  55  72 S1          N/A
HAMBY            N/A     63  37  39 N6          N/A
IVIE RESERVOIR   N/A     66  41  39 NW3         N/A
COLORADO BEND    N/A     66  50  55 NW5         N/A
$$

SUPPLEMENTAL OBSERVATIONS (EAST)

CITY           SKY/WX    TMP DP  RH WIND       PRES   REMARKS
TEXARKANA        N/A     48  43  81 NE2         N/A
LINDEN           N/A     46  41  81 E1          N/A
CADDO LAKE       N/A     50  45  81 NE2         N/A
GILMER           N/A     48  45  87 NE2         N/A
HENDERSON        N/A     52  46  82 NE6         N/A
LUFKIN           N/A     55  48  76 MISG        N/A
N SABINE NF      N/A     54  48  82 MISG        N/A
S SABINE NF      N/A     55  48  76 N3          N/A
$$

SUPPLEMENTAL OBSERVATIONS ARE A COLLECTION OF AUTOMATED INSTRUMENTS
THAT ARE MAINTAINED BY A VARIETY OF FEDERAL AND STATE AGENCIES.
CERTAIN ELEMENTS...SUCH AS HUMIDITY VALUES AND SUSTAINED WIND
SPEEDS...MAY BE APPROXIMATED.



USA.gov is the U.S. government's official web portal to all federal, state and local government web resources and services.